| time (UTC) | temp C | wind direction | speed KPH | gust KPH | rain 1hr cm | rain 24hr cm | rain mn cm | humidity % | barometer mb |
| 20260504034616 | 15 | 179 | 0.0 | 4.8 | 0.00 | 0.03 | 0.03 | 63 | 1003.9 |
| 20260504033103 | 15 | 0 | 0.0 | 4.8 | 0.00 | 0.03 | 0.03 | 62 | 1004.2 |
| 20260504031604 | 15 | 174 | 0.0 | 6.4 | 0.00 | 0.03 | 0.03 | 61 | 1004.2 |
| 20260504030054 | 15 | 161 | 0.0 | 6.4 | 0.00 | 0.03 | 0.03 | 61 | 1004.3 |
| 20260504024557 | 15 | 0 | 0.0 | 3.2 | 0.00 | 0.03 | 0.03 | 60 | 1004.3 |
| 20260504023057 | 16 | 138 | 0.0 | 6.4 | 0.00 | 0.03 | 0.03 | 59 | 1004.2 |
| 20260504021556 | 16 | 0 | 0.0 | 8.0 | 0.00 | 0.03 | 0.03 | 58 | 1004.2 |
| 20260504020104 | 16 | 0 | 0.0 | 3.2 | 0.00 | 0.03 | 0.03 | 57 | 1004.0 |
| 20260504014600 | 16 | 0 | 0.0 | 4.8 | 0.00 | 0.03 | 0.03 | 56 | 1004.0 |
| 20260504013105 | 17 | 0 | 0.0 | 9.7 | 0.00 | 0.03 | 0.03 | 54 | 1003.7 |
| 20260504011554 | 17 | 0 | 0.0 | 3.2 | 0.00 | 0.03 | 0.03 | 53 | 1003.5 |
| 20260504010052 | 17 | 0 | 0.0 | 8.0 | 0.00 | 0.03 | 0.03 | 51 | 1003.5 |
| 20260504004548 | 18 | 0 | 1.6 | 6.4 | 0.00 | 0.03 | 0.03 | 49 | 1003.6 |
| 20260504003048 | 18 | 0 | 0.0 | 9.7 | 0.00 | 0.03 | 0.03 | 48 | 1003.7 |
| 20260504001556 | 20 | 278 | 0.0 | 4.8 | 0.00 | 0.03 | 0.03 | 46 | 1003.7 |
| 20260504000057 | 20 | 0 | 3.2 | 16.1 | 0.00 | 0.03 | 0.03 | 44 | 1003.5 |
| 20260503234555 | 20 | 274 | 3.2 | 12.9 | 0.00 | 0.03 | 0.03 | 42 | 1003.7 |
| 20260503233051 | 21 | 0 | 1.6 | 12.9 | 0.00 | 0.03 | 0.03 | 42 | 1003.6 |
| 20260503231552 | 21 | 243 | 0.0 | 8.0 | 0.00 | 0.03 | 0.03 | 42 | 1003.6 |
| 20260503230106 | 20 | 216 | 0.0 | 11.3 | 0.00 | 0.03 | 0.03 | 43 | 1004.0 |
| 20260503224558 | 20 | 159 | 1.6 | 11.3 | 0.00 | 0.03 | 0.03 | 42 | 1004.1 |
| 20260503223050 | 20 | 291 | 1.6 | 11.3 | 0.00 | 0.03 | 0.03 | 43 | 1004.3 |
| 20260503221602 | 19 | 285 | 3.2 | 17.7 | 0.00 | 0.03 | 0.03 | 43 | 1004.5 |
| 20260503220057 | 19 | 139 | 1.6 | 12.9 | 0.00 | 0.03 | 0.03 | 44 | 1004.6 |
| 20260503214550 | 18 | 75 | 3.2 | 14.5 | 0.00 | 0.03 | 0.03 | 43 | 1004.7 |
| 20260503213102 | 18 | 15 | 4.8 | 16.1 | 0.00 | 0.03 | 0.03 | 43 | 1004.9 |
| 20260503211610 | 18 | 47 | 3.2 | 20.9 | 0.00 | 0.03 | 0.03 | 42 | 1005.2 |
| 20260503210057 | 18 | 169 | 8.0 | 19.3 | 0.00 | 0.03 | 0.03 | 42 | 1005.5 |
| 20260503204553 | 17 | 230 | 6.4 | 22.5 | 0.00 | 0.03 | 0.03 | 42 | 1005.8 |
| 20260503203057 | 17 | 245 | 3.2 | 17.7 | 0.00 | 0.03 | 0.03 | 42 | 1006.1 |
| 20260503201554 | 18 | 43 | 4.8 | 19.3 | 0.00 | 0.03 | 0.03 | 43 | 1006.2 |
| 20260503200058 | 17 | 108 | 4.8 | 19.3 | 0.00 | 0.03 | 0.03 | 46 | 1006.4 |
| 20260503194602 | 17 | 243 | 4.8 | 27.4 | 0.00 | 0.03 | 0.03 | 46 | 1006.6 |
| 20260503193101 | 16 | 339 | 3.2 | 19.3 | 0.00 | 0.03 | 0.03 | 51 | 1006.6 |
| 20260503191555 | 15 | 217 | 3.2 | 17.7 | 0.00 | 0.03 | 0.03 | 56 | 1006.9 |
| 20260503190056 | 15 | 207 | 6.4 | 29.0 | 0.00 | 0.03 | 0.03 | 58 | 1007.3 |
| 20260503184601 | 14 | 217 | 3.2 | 16.1 | 0.00 | 0.03 | 0.03 | 60 | 1007.6 |
| 20260503183052 | 12 | 207 | 4.8 | 16.1 | 0.03 | 0.03 | 0.03 | 65 | 1007.9 |
| 20260503181610 | 12 | 108 | 4.8 | 16.1 | 0.03 | 0.03 | 0.03 | 65 | 1008.2 |
| 20260503180112 | 11 | 214 | 1.6 | 9.7 | 0.03 | 0.03 | 0.03 | 71 | 1008.6 |
| 20260503174556 | 11 | 176 | 1.6 | 11.3 | 0.03 | 0.03 | 0.03 | 72 | 1009.8 |
| 20260503173102 | 11 | 155 | 3.2 | 12.9 | 0.00 | 0.00 | 0.00 | 73 | 1010.0 |
| 20260503171552 | 10 | 169 | 3.2 | 11.3 | 0.00 | 0.00 | 0.00 | 73 | 1010.4 |
| 20260503150108 | 12 | 250 | 1.6 | 11.3 | 0.00 | 0.00 | 0.00 | 57 | 1011.3 |
| 20260503081553 | 7 | 0 | 0.0 | 6.4 | 0.00 | 0.00 | 0.00 | 58 | 1012.5 |
| 20260503080105 | 7 | 0 | 0.0 | 4.8 | 0.00 | 0.00 | 0.00 | 58 | 1012.5 |
| 20260503071557 | 7 | 0 | 0.0 | 1.6 | 0.00 | 0.00 | 0.00 | 56 | 1012.8 |
| 20260503054548 | 7 | 0 | 0.0 | 3.2 | 0.00 | 0.00 | 0.00 | 57 | 1013.5 |
| 20260503053052 | 7 | 0 | 0.0 | 4.8 | 0.00 | 0.00 | 0.00 | 56 | 1013.6 |
| 20260503051550 | 7 | 0 | 0.0 | 3.2 | 0.00 | 0.00 | 0.00 | 57 | 1013.7 |
| 20260503050057 | 7 | 0 | 0.0 | 1.6 | 0.00 | 0.00 | 0.00 | 58 | 1013.7 |
| 20260503044606 | 7 | 0 | 0.0 | 3.2 | 0.00 | 0.00 | 0.00 | 57 | 1013.8 |
| 20260503043052 | 7 | 0 | 0.0 | 3.2 | 0.00 | 0.00 | 0.00 | 56 | 1013.8 |
| 20260503041553 | 7 | 0 | 0.0 | 1.6 | 0.00 | 0.00 | 0.00 | 56 | 1013.9 |